Location: ?????
(44.4284°N, 135.2222°E)
Time: 04:33:37
(UTC+00:00)

Cosmos 1703 Rocket - Pass Details

Date: 19 May 2025
Orbit: 598 x 627 km, 82.5° (Epoch: 19 June)

Event Time Altitude Azimuth Distance (km) Brightness Sun altitude
Exits shadow 17:55:27 12° 179° (S) 1,873 5.6 -13.7°
Maximum altitude 17:59:33 71° 96° (E) 661 3.8 -13.2°
Drops below altitude 10° 18:03:57 10° 13° (NNE) 1,994 7.1 -12.6°
Sets 18:06:11 0° 11° (N) 2,900 8.0 -12.3°
